Location: Bedeille
(43.3500°N, 0.1000°W)
Time: 00:33:50
(UTC+00:00)

Daily predictions for brighter satellites

Satellite Brightness Start Highest point End
(mag) Time Altitude Azimuth Time Altitude Azimuth Time Altitude Azimuth
Cosmos 2360 Rocket 4.0 02:56:00 27° NE 02:56:06 27° NE 03:00:52 10° ESE
CZ-4C R/B 3.8 03:10:03 32° N 03:12:57 44° NE 03:20:50 10° ESE
COSMOS 2455 4.1 03:26:17 32° N 03:26:17 32° N 03:29:32 10° NNE
ISS -0.2 03:32:54 11° E 03:32:54 11° E 03:33:00 10° E
In-Cosmos 22 4.3 03:47:22 63° NE 03:47:22 63° NE 03:51:58 10° NNE
Cosmos 1959 Rocket 4.4 03:41:49 10° N 03:47:58 83° E 03:54:08 10° S
ALOS 3.2 03:43:22 10° NNE 03:46:48 45° NE 03:46:48 45° NE
Cosmos 864 Rocket 4.4 03:44:42 10° N 03:50:57 86° E 03:57:13 10° S
CZ-4B R/B 3.7 03:49:05 10° NNE 03:53:31 64° NNE 03:53:31 64° NNE
Cosmos 2237 4.2 03:56:11 74° SSE 03:56:11 74° SSE 04:01:20 10° SSE
Atlas Centaur 2 4.5 03:54:12 16° S 03:55:54 17° SSE 03:59:49 10° SE
Cosmos 2366 rocket 3.9 03:50:56 10° N 03:57:18 83° W 04:03:39 10° S
SME Rocket 4.0 03:54:11 10° SSE 03:58:40 50° SSE 03:58:40 50° SSE
USA 305 3.5 04:05:38 54° ENE 04:05:38 54° ENE 04:09:00 10° NE
Cosmos 1484 Rocket 3.7 04:01:42 10° NNE 04:05:22 47° E 04:05:22 47° E
Cosmos 1833 4.2 04:04:12 52° S 04:05:38 78° ESE 04:11:16 10° NNE
PSLV R/B 4.3 04:03:54 10° NNE 04:08:11 51° E 04:11:02 20° S
Cosmos 2084 4.1 04:10:14 49° NNE 04:10:51 54° NE 04:15:16 10° SE
Cosmos 1538 Rocket 3.9 04:11:18 68° SSW 04:11:59 85° WNW 04:17:24 10° NNE
SL-4 R/B 2.4 04:13:17 62° SE 04:13:17 62° SE 04:16:44 10° SE
COSMOS 2428 4.2 04:07:27 10° N 04:12:37 34° NE 04:17:46 10° ESE
Cosmos 304 Rocket 3.8 04:17:27 65° SSW 04:17:27 65° SSW 04:21:40 10° SSE
CZ-2C R/B 3.4 04:15:29 10° N 04:18:12 31° NNW 04:18:12 31° NNW
SL-16 R/B 4.3 04:25:00 12° SSW 04:25:00 12° SSW 04:25:27 10° SSW
Cosmos 2181 Rocket 4.2 04:27:41 44° W 04:27:53 44° WNW 04:33:52 10° N
Nadezhda 3 Rocket 4.1 04:24:29 10° S 04:30:36 76° E 04:36:46 10° N
Meteor 1-16 Rocket 3.9 04:25:40 10° NNW 04:31:06 77° W 04:36:24 10° S
Cosmos 2322 Rocket 3.2 04:33:33 28° SW 04:33:33 28° SW 04:36:43 10° S
Cosmos 1900 4.2 04:30:01 40° SSW 04:31:48 90° SE 04:36:43 10° NNE
Cosmos 1626 2.9 04:33:48 38° N 04:33:48 38° N 04:36:14 10° N
ARIANE 5 R/B 4.1 04:30:27 10° N 04:32:26 20° NNW 04:32:26 20° NNW
Lacrosse 5 2.7 04:35:24 33° SW 04:35:24 33° SW 04:39:12 10° S
USA 307 2.7 04:34:36 68° W 04:35:03 78° NW 04:39:14 10° NE
USA 306 2.7 04:35:45 64° WNW 04:36:10 70° NW 04:40:25 10° NE
Cosmos 2219 Rocket 2.6 04:30:36 10° NNW 04:36:14 62° ENE 04:41:51 10° SE
Cosmos 1818 3.9 04:32:39 15° NNW 04:37:13 64° NE 04:42:37 10° SE
Spot 4 Rocket 4.3 04:35:03 10° N 04:39:51 42° WNW 04:40:17 41° W
Lacrosse 5 rocket 3.6 04:39:28 14° NNW 04:40:13 14° N 04:42:39 10° NNE
Cosmos 2360 Rocket 2.3 04:37:54 30° NW 04:40:22 51° WSW 04:45:49 10° S
Cosmos 1821 Rocket 3.8 04:35:30 10° N 04:41:43 82° W 04:47:49 10° S
Cosmos 332 Rocket 4.1 04:42:44 41° WSW 04:42:44 41° WSW 04:46:53 10° S
SL-08 R/B 4.5 04:37:30 10° NNW 04:43:55 67° W 04:50:18 10° S
Cosmos 2237 Rocket 4.3 04:42:28 10° N 04:47:05 25° NE 04:51:41 10° ESE
Cosmos 1025 Rocket 3.1 04:43:26 10° S 04:47:43 76° E 04:52:01 10° NNE
Cosmos 1934 Rocket 4.4 04:43:40 10° N 04:49:44 63° E 04:55:52 10° SSE
Cosmos 220 Rocket 4.2 04:49:49 42° W 04:49:56 42° WSW 04:53:54 10° S
ERBS 2.9 04:48:44 30° SSW 04:50:00 51° SE 04:53:11 10° NE
FENGYUN 3A 4.2 04:45:54 10° N 04:50:46 35° WNW 04:51:59 31° W
Cosmos 923 Rocket 3.9 04:45:45 10° SSW 04:50:56 88° WNW 04:56:11 10° NNE
Envisat 3.9 04:46:09 10° NNE 04:51:06 50° E 04:56:01 10° S
Cosmos 1680 Rocket 3.7 04:47:09 10° S 04:52:22 73° ESE 04:57:39 10° NNE
Cosmos 2333 Rocket 2.1 04:46:40 10° NNW 04:52:27 81° WSW 04:58:13 10° SSE
Cosmos 1346 Rocket 4.2 04:55:09 23° NW 04:55:09 23° NW 04:57:12 10° NNW
USA 308 3.0 04:56:49 36° W 04:58:14 55° NNW 05:02:25 10° NE
SL-24 R/B - RUBIN 2 4.2 04:58:03 32° WSW 04:58:27 32° WSW 05:02:17 10° S
CZ-4C R/B 3.2 04:55:17 13° NW 05:01:51 55° WSW 05:10:08 10° SSE
Cosmos 1953 3.0 05:03:36 30° WNW 05:04:14 32° W 05:07:47 10° SSW
H-2A R/B 2.9 05:01:25 10° NNE 05:05:11 71° E 05:08:53 10° S
ISS -3.4 05:05:54 36° WNW 05:06:52 49° NNW 05:10:09 10° NE
Cosmos 1441 Rocket 3.1 05:03:29 10° SSW 05:07:09 58° WNW 05:10:51 10° N
Meteor 1-31 Rocket 3.2 05:04:12 10° NNE 05:07:58 63° ESE 05:11:43 10° S
Cosmos 1536 Rocket 4.3 05:03:53 10° S 05:08:10 56° E 05:12:27 10° NNE
Cosmos 1300 2.5 05:06:09 10° NNW 05:09:57 73° W 05:13:43 10° S
Meteor 2-5 Rocket 3.9 05:04:36 10° S 05:10:07 77° E 05:15:44 10° NNE
COSMO-SKYMED 1 2.7 05:06:50 10° SSE 05:11:10 80° ENE 05:15:32 10° N
CZ-4B R/B 3.9 05:08:06 10° NNE 05:11:48 72° E 05:15:37 10° S
Cosmos 1455 Rocket 3.4 05:08:23 10° NNW 05:12:35 41° W 05:16:44 10° SSW
COSMOS 2487 2.8 05:12:04 26° WSW 05:13:17 37° WNW 05:16:26 10° N
Cosmos 2322 3.7 05:08:19 10° NNW 05:13:57 62° WSW 05:19:31 10° S
USA 234 3.3 05:09:51 10° NE 05:16:25 89° NW 05:22:58 10° SW
Cosmos 2112 Rocket 3.9 05:16:04 10° SSW 05:21:16 75° WNW 05:26:34 10° NNE
SL-14 R/B 3.8 05:17:42 10° SW 05:21:18 35° WNW 05:24:54 10° N
Cosmos 1371 Rocket 4.0 05:17:58 10° NNW 05:23:11 86° ENE 05:28:22 10° SSE
Meteor 2-10 Rocket 3.4 05:19:02 10° N 05:24:05 87° E 05:29:05 10° S
ALOS 3.8 05:22:07 10° NNW 05:24:54 16° WNW 05:25:16 16° WNW
Cosmos 1975 Rocket 4.0 05:21:51 10° SW 05:25:38 27° WNW 05:29:28 10° NNW
Cosmos 1544 Rocket 3.7 05:22:57 10° NNW 05:27:13 51° W 05:31:25 10° S
Meteor 1-4 Rocket 2.5 05:24:48 10° NNW 05:28:13 55° W 05:31:41 10° S
GEOS 3 Rocket 4.4 05:25:12 10° NE 05:30:15 55° ESE 05:35:13 10° SSW
Cosmos 1624 Rocket 4.0 05:27:01 10° NNW 05:32:23 88° WSW 05:37:41 10° SSE
IRAS Rocket 4.3 05:26:57 10° SSE 05:32:36 86° ENE 05:38:14 10° NNW
Meteor 1-24 Rocket 3.6 05:29:22 10° SSW 05:34:42 80° WNW 05:40:14 10° N
USA 276 3.3 05:35:27 15° WNW 05:37:28 29° NNW 05:40:16 10° NE
CZ-4B R/B 4.2 05:36:14 10° ESE 05:38:25 18° ENE 05:40:40 10° NNE
Cosmos 1339 Rocket 4.4 05:32:37 10° SSW 05:38:47 70° W 05:44:55 10° N
Atlas Centaur 2 4.0 05:39:23 10° SW 05:44:16 22° S 05:48:25 10° SE
USA 305 4.0 05:41:40 12° W 05:44:59 29° NNW 05:48:42 10° NE
SL-4 R/B 3.8 05:49:01 10° W 05:51:35 16° SW 05:54:03 10° SSW
CZ-2C R/B 2.9 05:48:35 10° S 05:53:57 52° W 05:59:25 10° NNW
COSMOS 2428 3.2 05:51:40 10° NW 05:56:55 39° WSW 06:02:09 10° S
CZ-2C R/B 3.6 05:52:06 10° NNE 05:57:14 63° E 06:02:04 10° S
Landsat 5 4.2 05:55:19 10° SSW 05:58:49 30° W 06:02:29 10° NNW
SKYMED 2 4.4 05:55:29 10° SSW 05:59:20 31° W 06:03:13 10° NNW
NOSS 3-4 (A) 4.4 05:52:27 10° NNW 05:59:23 61° NE 06:07:06 10° SE
NOSS 3-4 (C) 4.4 05:52:34 10° NNW 05:59:29 61° NE 06:07:12 10° SE
Cosmos 2297 Rocket 2.5 05:54:00 10° SSW 05:59:38 78° ESE 06:05:18 10° NNE
Cosmos 44 Rocket 3.9 05:55:31 10° NW 06:00:06 39° WSW 06:04:31 10° S
Cosmos 292 Rocket 4.2 05:56:33 10° NNW 06:01:07 42° WSW 06:05:37 10° S
ATLAS 2AS CENTAUR R/B 4.1 05:57:47 10° NNW 06:04:24 35° NE 06:10:35 10° ESE
